Regional Weather Roundup
Issued by NWS

Home | Current Version | Previous Version | Text Only | Print | Product List | Glossary Off
Versions: 1 2 3 4 5 6 7 8 9 10 11 12 13 14 15 16 17 18 19 20 21 22 23 24 25 26 27 28 29 30 31 32 33 34 35 36 37 38 39 40 41 42 43 44 45 46 47 48 49

000
ASUS45 KCYS 020010
RWRWY

WYOMING REGIONAL WEATHER ROUNDUP
NATIONAL WEATHER SERVICE CHEYENNE WY
600 PM MDT TUE SEP 01 2015

NOTE:  "FAIR" INDICATES FEW OR NO CLOUDS BELOW 12,000 FEET
WITH NO SIGNIFICANT WEATHER AND/OR OBSTRUCTIONS TO VISIBILITY.

WYZ001-020100-
YELLOWSTONE NATIONAL PARK

CITY           SKY/WX    TMP DP  RH WIND       PRES   REMARKS
LK YELLOWSTONE   N/A     71  23  16 SW8       30.16S
6HR MIN TEMP:  68; 6HR MAX TEMP:  73;

W YELLOWSTONE  NOT AVBL

$$
WYZ002>013-054>058-071-098>099-020100-
NORTHERN WYOMING

CITY           SKY/WX    TMP DP  RH WIND       PRES   REMARKS
JACKSON        FAIR      75  34  22 S6        30.05S
CODY           FAIR      86  30  13 W8        29.89S
GREYBULL       FAIR      92  32  12 SE7       29.78F
6HR MIN TEMP:  81; 6HR MAX TEMP:  94;

WORLAND        FAIR      90  34  13 SW12      29.80F
6HR MIN TEMP:  84; 6HR MAX TEMP:  95;

SHERIDAN       FAIR      92  32  12 NE5       29.82S
6HR MIN TEMP:  87; 6HR MAX TEMP:  94;

BUFFALO        FAIR      88  27  11 E10       29.91F
6HR MIN TEMP:  84; 6HR MAX TEMP:  91;

GILLETTE       FAIR      89  31  12 NE3       29.88S
6HR MIN TEMP:  85; 6HR MAX TEMP:  91;

HULETT         FAIR      88  32  13 CALM      29.91S
NEWCASTLE        N/A     88  27  11 CALM      29.90S

$$
WYZ014>020-022>026-101>103-020100-
CENTRAL WYOMING

CITY           SKY/WX    TMP DP  RH WIND       PRES   REMARKS
BIG PINEY      FAIR      79  28  15 W8        30.11S
6HR MIN TEMP:  70; 6HR MAX TEMP:  84;

PINEDALE       FAIR      79  28  15 W13G18    30.11S
DUBOIS         FAIR      77  25  14 W22       30.09S
LANDER         FAIR      84  35  17 SW12      29.93F
6HR MIN TEMP:  77; 6HR MAX TEMP:  91;

RIVERTON       FAIR      87  32  14 W10       29.95S
6HR MIN TEMP:  76; 6HR MAX TEMP:  90;

CASPER         FAIR      88  31  13 SW21      29.96S
6HR MIN TEMP:  85; 6HR MAX TEMP:  91;

DOUGLAS        FAIR      87  31  13 W10       29.95S
6HR MIN TEMP:  87; 6HR MAX TEMP:  93;


$$
WYZ021-027>030-104>119-020100-
SOUTHERN WYOMING

CITY           SKY/WX    TMP DP  RH WIND       PRES   REMARKS
EVANSTON       PTSUNNY   78  38  23 W12       30.13F
6HR MIN TEMP:  68; 6HR MAX TEMP:  81; 6HR PCP:  0.01;

KEMMERER       CLOUDY    75  32  20 SW16G25   30.15S
FORT BRIDGER   CLEAR     79  32  18 SW10G18   30.16F
ROCK SPRINGS   PTSUNNY   67  54  63 W6        30.16R
6HR MIN TEMP:  63; 6HR MAX TEMP:  81; 6HR PCP:  0.22;

DIXON          MOCLDY    75  41  29 SE10      30.18R
RAWLINS        FAIR      79  36  21 S17G26    30.13S
6HR MIN TEMP:  78; 6HR MAX TEMP:  83;

SARATOGA       FAIR      73  41  31 W9        30.19R
LARAMIE        LGT RAIN  73  38  27 N10       30.18R
6HR MIN TEMP:  73; 6HR MAX TEMP:  80; 6HR PCP: TRACE;

CHEYENNE       FAIR      82  34  17 W6        30.09S
6HR MIN TEMP:  80; 6HR MAX TEMP:  87;

TORRINGTON     FAIR      91  33  12 S7        29.90S
6HR MIN TEMP:  86; 6HR MAX TEMP:  95;

PINE BLUFFS    FAIR      86  28  12 W7        30.01S

$$



USA.gov is the U.S. government's official web portal to all federal, state and local government web resources and services.